DLH69 LICC-LIMJ

Flight info

Callsign DLH69
Flight time 1h 39m
Altitude 38000
Route BUDIN DCT TAGEL DCT ELB DCT BETEN/N0382F180 M729 IDONA
Aircraft A20N/M-SDE2E3FGHIRWXY/LB1

Departure

Time 2026-04-26 16:42
Airport Catania-Fontanarossa Airport (LICC)

Arrival

Time 2026-04-26 18:21
Airport Genoa Cristoforo Colombo Airport (LIMJ)
Time Latitude Longitude Altitude Speed Heading
2026-04-26 16:38 37.46721 15.05318 40 ft 0 kts 232°
2026-04-26 16:39 37.46720 15.05316 38 ft 2 kts 231°
2026-04-26 16:39 37.46698 15.05287 39 ft 7 kts 223°
2026-04-26 16:39 37.46679 15.05266 38 ft 0 kts 222°
2026-04-26 16:40 37.46676 15.05263 38 ft 2 kts 222°
2026-04-26 16:40 37.46651 15.05234 38 ft 7 kts 222°
2026-04-26 16:41 37.46600 15.05196 39 ft 10 kts 191°
2026-04-26 16:41 37.46561 15.05213 37 ft 6 kts 120°
2026-04-26 16:41 37.46565 15.05282 38 ft 11 kts 83°
2026-04-26 16:41 37.46586 15.05518 35 ft 59 kts 83°
2026-04-26 16:42 37.46653 15.06302 33 ft 118 kts 84°
2026-04-26 16:42 37.46758 15.07507 225 ft 144 kts 82°
2026-04-26 16:42 37.46909 15.08733 898 ft 140 kts 79°
2026-04-26 16:42 37.47079 15.09958 1466 ft 147 kts 82°
2026-04-26 16:43 37.47255 15.11255 1910 ft 159 kts 83°
2026-04-26 16:43 37.47437 15.12719 2242 ft 181 kts 83°
2026-04-26 16:43 37.47649 15.14404 2738 ft 212 kts 82°
2026-04-26 16:43 37.47919 15.16366 3378 ft 242 kts 80°
2026-04-26 16:44 37.48243 15.18553 4169 ft 263 kts 79°
2026-04-26 16:44 37.48586 15.20818 5373 ft 264 kts 79°
2026-04-26 16:44 37.48918 15.23101 6559 ft 266 kts 79°
2026-04-26 16:44 37.49227 15.25403 7735 ft 266 kts 80°
2026-04-26 16:45 37.49608 15.27697 8785 ft 271 kts 68°
2026-04-26 16:45 37.50662 15.29657 9808 ft 276 kts 41°
2026-04-26 16:45 37.52263 15.31049 10619 ft 289 kts 32°
2026-04-26 16:45 37.54050 15.32427 11064 ft 314 kts 31°
2026-04-26 16:46 37.55997 15.33909 11470 ft 339 kts 31°
2026-04-26 16:46 37.58049 15.35486 11978 ft 351 kts 31°
2026-04-26 16:46 37.60141 15.37111 12825 ft 355 kts 31°
2026-04-26 16:46 37.62264 15.38772 13615 ft 361 kts 31°
2026-04-26 16:47 37.64415 15.40460 14402 ft 365 kts 32°
2026-04-26 16:47 37.66581 15.42163 15169 ft 369 kts 32°
2026-04-26 16:47 37.68771 15.43871 15910 ft 373 kts 28°
2026-04-26 16:47 37.71206 15.45010 16623 ft 376 kts
2026-04-26 16:48 37.73810 15.45099 17338 ft 378 kts 351°
2026-04-26 16:48 37.76343 15.44190 18053 ft 380 kts 338°
2026-04-26 16:48 37.78805 15.42941 18725 ft 383 kts 336°
2026-04-26 16:48 37.81239 15.41651 19398 ft 385 kts 336°
2026-04-26 16:49 37.83726 15.40347 20041 ft 388 kts 336°
2026-04-26 16:49 37.86236 15.39056 20682 ft 391 kts 336°
2026-04-26 16:49 37.88769 15.37772 21310 ft 394 kts 337°
2026-04-26 16:49 37.91329 15.36485 21925 ft 397 kts 337°
2026-04-26 16:50 37.93912 15.35190 22568 ft 401 kts 337°
2026-04-26 16:50 37.96512 15.33886 23145 ft 404 kts 337°
2026-04-26 16:50 37.99135 15.32569 23744 ft 407 kts 337°
2026-04-26 16:50 38.01781 15.31240 24268 ft 409 kts 336°
2026-04-26 16:51 38.04432 15.29907 24832 ft 411 kts 336°
2026-04-26 16:51 38.07099 15.28565 25324 ft 414 kts 336°
2026-04-26 16:51 38.09781 15.27214 25842 ft 415 kts 336°
2026-04-26 16:51 38.12470 15.25859 26411 ft 416 kts 336°
2026-04-26 16:52 38.15184 15.24488 26739 ft 423 kts 336°
2026-04-26 16:52 38.16995 15.23573 27057 ft 424 kts 336°
2026-04-26 16:52 38.20669 15.21716 27694 ft 426 kts 336°
2026-04-26 16:52 38.23432 15.20318 28134 ft 428 kts 336°
2026-04-26 16:53 38.26207 15.18913 28555 ft 431 kts 335°
2026-04-26 16:53 38.28996 15.17499 28965 ft 433 kts 335°
2026-04-26 16:53 38.31804 15.16075 29362 ft 435 kts 335°
2026-04-26 16:53 38.34621 15.14644 29748 ft 437 kts 335°
2026-04-26 16:54 38.37450 15.13206 30118 ft 440 kts 336°
2026-04-26 16:54 38.40316 15.11745 30321 ft 445 kts 336°
2026-04-26 16:54 38.43194 15.10281 30693 ft 446 kts 336°
2026-04-26 16:54 38.46055 15.08734 31056 ft 446 kts 332°
2026-04-26 16:55 38.48766 15.06826 31417 ft 445 kts 325°
2026-04-26 16:55 38.51293 15.04575 31859 ft 442 kts 321°
2026-04-26 16:55 38.53757 15.02239 32328 ft 440 kts 321°
2026-04-26 16:55 38.56219 14.99928 32795 ft 438 kts 321°
2026-04-26 16:56 38.61104 14.95341 33700 ft 434 kts 321°
2026-04-26 16:56 38.63535 14.93047 34008 ft 435 kts 321°
2026-04-26 16:56 38.65975 14.90741 34274 ft 436 kts 321°
2026-04-26 16:57 38.68415 14.88433 34584 ft 436 kts 321°
2026-04-26 16:57 38.70853 14.86125 34907 ft 435 kts 321°
2026-04-26 16:57 38.75676 14.81552 35486 ft 434 kts 321°
2026-04-26 16:58 38.78102 14.79249 35781 ft 433 kts 321°
2026-04-26 16:58 38.78917 14.78474 35873 ft 433 kts 321°
2026-04-26 16:58 38.85348 14.72356 36585 ft 432 kts 321°
2026-04-26 16:59 38.87760 14.70058 36852 ft 431 kts 322°
2026-04-26 16:59 38.92579 14.65460 37307 ft 431 kts 322°
2026-04-26 17:00 38.97385 14.60869 37791 ft 430 kts 321°
2026-04-26 17:00 39.02179 14.56280 38146 ft 429 kts 321°
2026-04-26 17:00 39.04564 14.53994 38151 ft 428 kts 321°
2026-04-26 17:01 39.09333 14.49417 38148 ft 428 kts 321°
2026-04-26 17:01 39.14102 14.44831 38147 ft 428 kts 322°
2026-04-26 17:02 39.18069 14.41011 38149 ft 428 kts 321°
2026-04-26 17:02 39.22839 14.36411 38145 ft 428 kts 321°
2026-04-26 17:03 39.27610 14.31802 38153 ft 428 kts 321°
2026-04-26 17:03 39.32373 14.27193 38150 ft 428 kts 321°
2026-04-26 17:04 39.37137 14.22575 38140 ft 428 kts 321°
2026-04-26 17:04 39.41904 14.17945 38152 ft 428 kts 321°
2026-04-26 17:05 39.46637 14.13341 38155 ft 428 kts 321°
2026-04-26 17:05 39.51400 14.08700 38153 ft 429 kts 321°
2026-04-26 17:06 39.56167 14.04046 38141 ft 429 kts 321°
2026-04-26 17:06 39.60927 13.99391 38143 ft 429 kts 321°
2026-04-26 17:07 39.65691 13.94723 38138 ft 429 kts 321°
2026-04-26 17:07 39.70458 13.90045 38139 ft 430 kts 321°
2026-04-26 17:08 39.75223 13.85359 38150 ft 430 kts 321°
2026-04-26 17:08 39.79989 13.80666 38149 ft 430 kts 321°
2026-04-26 17:09 39.83950 13.76757 38152 ft 430 kts 321°
2026-04-26 17:09 39.89491 13.71282 38147 ft 430 kts 321°
2026-04-26 17:10 39.94258 13.66562 38150 ft 430 kts 321°
2026-04-26 17:10 39.99023 13.61835 38149 ft 430 kts 321°
2026-04-26 17:11 40.03789 13.57098 38145 ft 430 kts 321°
2026-04-26 17:11 40.08549 13.52359 38148 ft 430 kts 321°
2026-04-26 17:12 40.15689 13.45235 38150 ft 430 kts 321°
2026-04-26 17:13 40.22795 13.38125 38151 ft 430 kts 321°
2026-04-26 17:14 40.29909 13.30952 38140 ft 430 kts 319°
2026-04-26 17:14 40.36676 13.23229 38145 ft 429 kts 318°
2026-04-26 17:15 40.43448 13.15522 38152 ft 429 kts 317°
2026-04-26 17:16 40.47954 13.10368 38143 ft 430 kts 317°
2026-04-26 17:16 40.52429 13.05236 38141 ft 429 kts 317°
2026-04-26 17:17 40.56926 13.00068 38150 ft 429 kts 317°
2026-04-26 17:17 40.61420 12.94894 38148 ft 429 kts 317°
2026-04-26 17:18 40.65912 12.89714 38144 ft 429 kts 317°
2026-04-26 17:18 40.70402 12.84525 38146 ft 429 kts 317°
2026-04-26 17:19 40.77124 12.76739 38144 ft 429 kts 317°
2026-04-26 17:19 40.81607 12.71534 38139 ft 429 kts 317°
2026-04-26 17:20 40.85334 12.67200 38137 ft 429 kts 317°
2026-04-26 17:20 40.90563 12.61107 38143 ft 428 kts 317°
2026-04-26 17:21 40.95034 12.55888 38147 ft 428 kts 317°
2026-04-26 17:21 40.99500 12.50664 38146 ft 428 kts 317°
2026-04-26 17:22 41.03928 12.45475 38137 ft 428 kts 317°
2026-04-26 17:22 41.08387 12.40240 38134 ft 428 kts 317°
2026-04-26 17:23 41.12842 12.35000 38141 ft 428 kts 316°
2026-04-26 17:23 41.17295 12.29751 38140 ft 428 kts 316°
2026-04-26 17:24 41.21744 12.24498 38139 ft 428 kts 316°
2026-04-26 17:24 41.26193 12.19235 38139 ft 428 kts 316°
2026-04-26 17:25 41.30643 12.13961 38139 ft 428 kts 316°
2026-04-26 17:25 41.35089 12.08680 38147 ft 428 kts 316°
2026-04-26 17:26 41.39534 12.03392 38138 ft 428 kts 316°
2026-04-26 17:26 41.43978 11.98094 38139 ft 428 kts 316°
2026-04-26 17:27 41.48419 11.92790 38141 ft 429 kts 316°
2026-04-26 17:27 41.52859 11.87476 38142 ft 429 kts 316°
2026-04-26 17:28 41.57294 11.82159 38143 ft 429 kts 316°
2026-04-26 17:28 41.61700 11.76867 38142 ft 429 kts 316°
2026-04-26 17:29 41.65415 11.72396 38144 ft 429 kts 316°
2026-04-26 17:29 41.70562 11.66190 38145 ft 428 kts 316°
2026-04-26 17:30 41.74985 11.60847 38147 ft 428 kts 316°
2026-04-26 17:30 41.79409 11.55491 38146 ft 428 kts 316°
2026-04-26 17:31 41.83830 11.50129 38152 ft 428 kts 316°
2026-04-26 17:31 41.88245 11.44763 38142 ft 428 kts 316°
2026-04-26 17:32 41.92655 11.39393 38144 ft 428 kts 315°
2026-04-26 17:32 41.97058 11.34021 38142 ft 427 kts 315°
2026-04-26 17:33 42.01460 11.28639 38137 ft 427 kts 315°
2026-04-26 17:34 42.08043 11.20572 38142 ft 427 kts 315°
2026-04-26 17:34 42.12428 11.15186 38142 ft 426 kts 315°
2026-04-26 17:35 42.16779 11.09831 38139 ft 426 kts 315°
2026-04-26 17:35 42.21148 11.04442 38137 ft 425 kts 315°
2026-04-26 17:36 42.25516 10.99044 38134 ft 425 kts 315°
2026-04-26 17:36 42.29876 10.93646 38133 ft 425 kts 315°
2026-04-26 17:37 42.34232 10.88242 38131 ft 425 kts 315°
2026-04-26 17:37 42.38582 10.82835 38131 ft 425 kts 315°
2026-04-26 17:38 42.45113 10.74697 38132 ft 425 kts 315°
2026-04-26 17:38 42.49459 10.69268 38133 ft 425 kts 315°
2026-04-26 17:39 42.53803 10.63831 38139 ft 425 kts 315°
2026-04-26 17:39 42.58123 10.58413 38142 ft 425 kts 315°
2026-04-26 17:40 42.61026 10.54766 38148 ft 425 kts 315°
2026-04-26 17:40 42.66808 10.47491 38149 ft 425 kts 315°
2026-04-26 17:41 42.71156 10.42040 38146 ft 426 kts 317°
2026-04-26 17:41 42.76008 10.37390 38143 ft 429 kts 328°
2026-04-26 17:42 42.78620 10.35428 37918 ft 429 kts 328°
2026-04-26 17:42 42.81228 10.33460 37642 ft 427 kts 328°
2026-04-26 17:42 42.83825 10.31495 37369 ft 427 kts 328°
2026-04-26 17:42 42.86426 10.29527 37109 ft 428 kts 328°
2026-04-26 17:43 42.89034 10.27554 36836 ft 428 kts 329°
2026-04-26 17:43 42.91641 10.25582 36573 ft 428 kts 329°
2026-04-26 17:43 42.94244 10.23611 36236 ft 428 kts 329°
2026-04-26 17:43 42.96866 10.21624 35548 ft 432 kts 329°
2026-04-26 17:44 42.99471 10.19647 34675 ft 437 kts 329°
2026-04-26 17:44 43.02135 10.17623 33905 ft 438 kts 329°
2026-04-26 17:44 43.04830 10.15576 33094 ft 438 kts 330°
2026-04-26 17:44 43.07488 10.13553 32310 ft 437 kts 330°
2026-04-26 17:45 43.10150 10.11527 31506 ft 438 kts 330°
2026-04-26 17:45 43.12815 10.09496 30607 ft 441 kts 330°
2026-04-26 17:45 43.15449 10.07486 29969 ft 437 kts 330°
2026-04-26 17:45 43.18078 10.05479 29497 ft 429 kts 330°
2026-04-26 17:46 43.20682 10.03491 28858 ft 426 kts 329°
2026-04-26 17:46 43.23250 10.01526 28351 ft 420 kts 329°
2026-04-26 17:46 43.25787 9.99583 27753 ft 416 kts 329°
2026-04-26 17:46 43.28305 9.97652 27192 ft 411 kts 329°
2026-04-26 17:47 43.30786 9.95748 26638 ft 407 kts 329°
2026-04-26 17:47 43.31620 9.95108 26452 ft 406 kts 329°
2026-04-26 17:47 43.35681 9.91986 25528 ft 399 kts 329°
2026-04-26 17:47 43.38095 9.90128 24992 ft 396 kts 329°
2026-04-26 17:48 43.40494 9.88281 24412 ft 394 kts 329°
2026-04-26 17:48 43.42880 9.86441 23888 ft 391 kts 329°
2026-04-26 17:48 43.45242 9.84618 23301 ft 388 kts 329°
2026-04-26 17:48 43.47584 9.82810 22756 ft 384 kts 329°
2026-04-26 17:49 43.49897 9.81023 22223 ft 379 kts 329°
2026-04-26 17:49 43.52189 9.79249 21687 ft 376 kts 329°
2026-04-26 17:49 43.54455 9.77495 21155 ft 372 kts 329°
2026-04-26 17:49 43.56704 9.75752 20622 ft 369 kts 329°
2026-04-26 17:50 43.58934 9.74022 20099 ft 367 kts 329°
2026-04-26 17:50 43.60408 9.72878 19745 ft 365 kts 329°
2026-04-26 17:50 43.62615 9.71162 19192 ft 364 kts 329°
2026-04-26 17:50 43.64820 9.69448 18699 ft 361 kts 329°
2026-04-26 17:51 43.67008 9.67744 18087 ft 361 kts 329°
2026-04-26 17:51 43.69182 9.66051 17602 ft 357 kts 330°
2026-04-26 17:51 43.71335 9.64372 17094 ft 354 kts 330°
2026-04-26 17:51 43.73470 9.62707 16567 ft 351 kts 330°
2026-04-26 17:52 43.75590 9.61051 16051 ft 349 kts 330°
2026-04-26 17:52 43.77695 9.59406 15539 ft 347 kts 330°
2026-04-26 17:52 43.79791 9.57767 15027 ft 345 kts 330°
2026-04-26 17:52 43.81873 9.56137 14520 ft 343 kts 330°
2026-04-26 17:53 43.83948 9.54512 14012 ft 342 kts 331°
2026-04-26 17:53 43.85979 9.52921 13699 ft 334 kts 330°
2026-04-26 17:53 43.87982 9.51352 13560 ft 320 kts 330°
2026-04-26 17:54 43.91728 9.48411 13073 ft 303 kts 331°
2026-04-26 17:54 43.93558 9.46973 12641 ft 302 kts 330°
2026-04-26 17:54 43.95381 9.45540 12264 ft 299 kts 330°
2026-04-26 17:54 43.97180 9.44107 11859 ft 297 kts 328°
2026-04-26 17:55 43.98762 9.42326 11452 ft 296 kts 313°
2026-04-26 17:55 43.99997 9.40077 11357 ft 296 kts 304°
2026-04-26 17:55 44.01170 9.37683 11261 ft 300 kts 305°
2026-04-26 17:55 44.02352 9.35310 11155 ft 298 kts 306°
2026-04-26 17:56 44.03701 9.33147 11143 ft 296 kts 317°
2026-04-26 17:56 44.07080 9.29947 11138 ft 294 kts 343°
2026-04-26 17:57 44.11015 9.30593 11145 ft 294 kts 33°
2026-04-26 17:57 44.12478 9.32559 11141 ft 295 kts 54°
2026-04-26 17:57 44.13675 9.34868 11142 ft 293 kts 45°
2026-04-26 17:57 44.15339 9.36462 11001 ft 292 kts 21°
2026-04-26 17:58 44.20808 9.34378 9777 ft 293 kts 308°
2026-04-26 17:59 44.23446 9.30116 8939 ft 289 kts 319°
2026-04-26 17:59 44.24961 9.28285 8515 ft 287 kts 320°
2026-04-26 17:59 44.26500 9.26531 8132 ft 285 kts 322°
2026-04-26 17:59 44.28060 9.24817 7778 ft 282 kts 323°
2026-04-26 18:00 44.29577 9.23188 7671 ft 269 kts 323°
2026-04-26 18:00 44.31037 9.21648 7561 ft 257 kts 323°
2026-04-26 18:00 44.32436 9.20175 7467 ft 246 kts 324°
2026-04-26 18:00 44.33608 9.18492 7263 ft 242 kts 301°
2026-04-26 18:01 44.34303 9.16352 6929 ft 243 kts 289°
2026-04-26 18:01 44.34785 9.14109 6651 ft 241 kts 285°
2026-04-26 18:01 44.35260 9.11877 6361 ft 239 kts 287°
2026-04-26 18:01 44.35734 9.09687 6221 ft 229 kts 287°
2026-04-26 18:02 44.36182 9.07615 6060 ft 221 kts 287°
2026-04-26 18:02 44.36484 9.06223 6013 ft 225 kts 287°
2026-04-26 18:02 44.37088 9.03432 5995 ft 226 kts 287°
2026-04-26 18:02 44.37541 9.01337 5801 ft 224 kts 287°
2026-04-26 18:03 44.37995 8.99236 5342 ft 229 kts 287°
2026-04-26 18:03 44.38461 8.97085 4785 ft 234 kts 286°
2026-04-26 18:03 44.38938 8.94879 4161 ft 240 kts 286°
2026-04-26 18:03 44.39427 8.92620 3567 ft 244 kts 285°
2026-04-26 18:04 44.39912 8.90377 3209 ft 236 kts 285°
2026-04-26 18:04 44.40374 8.88250 3082 ft 219 kts 285°
2026-04-26 18:04 44.40795 8.86347 3114 ft 194 kts 286°
2026-04-26 18:05 44.41840 8.82811 3127 ft 198 kts 304°
2026-04-26 18:05 44.42290 8.81031 3117 ft 195 kts 268°
2026-04-26 18:05 44.42178 8.79153 3134 ft 193 kts 260°
2026-04-26 18:05 44.41659 8.77478 3125 ft 188 kts 223°
2026-04-26 18:06 44.40555 8.76684 3132 ft 182 kts 186°
2026-04-26 18:06 44.39287 8.76596 3138 ft 181 kts 175°
2026-04-26 18:06 44.38042 8.76751 3272 ft 181 kts 172°
2026-04-26 18:06 44.36670 8.76992 3617 ft 215 kts 171°
2026-04-26 18:07 44.35061 8.77270 3979 ft 250 kts 172°
2026-04-26 18:07 44.33294 8.77546 4358 ft 259 kts 172°
2026-04-26 18:07 44.31482 8.77810 4740 ft 265 kts 173°
2026-04-26 18:07 44.30238 8.77987 4997 ft 266 kts 173°
2026-04-26 18:08 44.27780 8.78333 5495 ft 268 kts 172°
2026-04-26 18:08 44.25896 8.78599 5794 ft 275 kts 173°
2026-04-26 18:08 44.23996 8.78869 5799 ft 273 kts 173°
2026-04-26 18:08 44.22171 8.79538 5726 ft 271 kts 150°
2026-04-26 18:09 44.20774 8.81255 5613 ft 269 kts 123°
2026-04-26 18:09 44.20118 8.83658 5489 ft 268 kts 96°
2026-04-26 18:09 44.20336 8.86213 5369 ft 268 kts 72°
2026-04-26 18:09 44.20936 8.88673 5245 ft 268 kts 71°
2026-04-26 18:10 44.21522 8.91096 5123 ft 267 kts 72°
2026-04-26 18:10 44.22081 8.93562 5001 ft 266 kts 73°
2026-04-26 18:10 44.22611 8.96037 4878 ft 266 kts 74°
2026-04-26 18:10 44.23123 8.98514 4750 ft 265 kts 75°
2026-04-26 18:11 44.23626 9.00985 4633 ft 263 kts 75°
2026-04-26 18:11 44.24115 9.03399 4560 ft 253 kts 75°
2026-04-26 18:11 44.24579 9.05698 4515 ft 239 kts 75°
2026-04-26 18:11 44.25015 9.07855 4514 ft 223 kts 75°
2026-04-26 18:12 44.25431 9.09918 4509 ft 224 kts 75°
2026-04-26 18:12 44.25847 9.11985 4526 ft 215 kts 75°
2026-04-26 18:12 44.26230 9.13879 4509 ft 192 kts 75°
2026-04-26 18:12 44.26586 9.15646 4517 ft 191 kts 76°
2026-04-26 18:13 44.26942 9.17421 4513 ft 189 kts 76°
2026-04-26 18:13 44.27289 9.19143 4507 ft 175 kts 76°
2026-04-26 18:13 44.27600 9.20684 4505 ft 155 kts 76°
2026-04-26 18:13 44.27787 9.21608 4513 ft 147 kts 76°
2026-04-26 18:14 44.28585 9.23127 4516 ft 154 kts 24°
2026-04-26 18:14 44.29635 9.23139 4512 ft 159 kts 336°
2026-04-26 18:14 44.30535 9.22249 4503 ft 160 kts 322°
2026-04-26 18:14 44.31408 9.21290 4507 ft 159 kts 322°
2026-04-26 18:15 44.32283 9.20344 4503 ft 158 kts 323°
2026-04-26 18:15 44.33143 9.19385 4506 ft 159 kts 315°
2026-04-26 18:15 44.33793 9.18135 4514 ft 165 kts 296°
2026-04-26 18:15 44.34249 9.16555 4505 ft 180 kts 287°
2026-04-26 18:16 44.34612 9.14885 4430 ft 179 kts 285°
2026-04-26 18:16 44.35326 9.11567 3970 ft 177 kts 286°
2026-04-26 18:16 44.35682 9.09923 3730 ft 177 kts 286°
2026-04-26 18:17 44.36039 9.08280 3487 ft 178 kts 285°
2026-04-26 18:17 44.36398 9.06620 3237 ft 178 kts 284°
2026-04-26 18:17 44.36754 9.04973 2992 ft 177 kts 284°
2026-04-26 18:17 44.37110 9.03329 2754 ft 176 kts 284°
2026-04-26 18:18 44.37459 9.01715 2493 ft 173 kts 284°
2026-04-26 18:18 44.37807 9.00107 2250 ft 173 kts 284°
2026-04-26 18:18 44.38146 8.98543 2001 ft 162 kts 284°
2026-04-26 18:18 44.38458 8.97101 1771 ft 152 kts 284°
2026-04-26 18:19 44.38757 8.95718 1562 ft 147 kts 285°
2026-04-26 18:19 44.39053 8.94346 1356 ft 148 kts 285°
2026-04-26 18:19 44.39351 8.92965 1147 ft 147 kts 285°
2026-04-26 18:19 44.39641 8.91627 945 ft 146 kts 285°
2026-04-26 18:20 44.39936 8.90265 742 ft 144 kts 284°
2026-04-26 18:20 44.40222 8.88941 551 ft 142 kts 285°
2026-04-26 18:20 44.40509 8.87624 317 ft 139 kts 285°
2026-04-26 18:20 44.40689 8.86756 180 ft 139 kts 284°
2026-04-26 18:21 44.41030 8.85033 9 ft 131 kts 285°
2026-04-26 18:21 44.41218 8.84075 11 ft 73 kts 285°
2026-04-26 18:21 44.41314 8.83594 12 ft 44 kts 285°
2026-04-26 18:21 44.41383 8.83242 11 ft 20 kts 287°
2026-04-26 18:22 44.41459 8.83110 12 ft 8 kts 319°
2026-04-26 18:22 44.41526 8.83095 11 ft 12 kts 22°
2026-04-26 18:22 44.41542 8.83210 12 ft 15 kts 106°
2026-04-26 18:22 44.41510 8.83367 12 ft 19 kts 106°
2026-04-26 18:23 44.41473 8.83556 10 ft 22 kts 105°
2026-04-26 18:23 44.41432 8.83773 10 ft 24 kts 104°
2026-04-26 18:23 44.41384 8.84015 11 ft 27 kts 105°
2026-04-26 18:23 44.41336 8.84257 9 ft 19 kts 105°
2026-04-26 18:24 44.41315 8.84366 10 ft 11 kts 104°
2026-04-26 18:24 44.41351 8.84471 10 ft 14 kts 50°
2026-04-26 18:24 44.41402 8.84561 11 ft 6 kts 53°
2026-04-26 18:24 44.41415 8.84632 9 ft 8 kts 104°
2026-04-26 18:25 44.41414 8.84640 11 ft 0 kts 107°
2026-04-26 18:30 44.41413 8.84642 11 ft 1 kts 107°
2026-04-26 18:31 44.41406 8.84676 9 ft 6 kts 106°
2026-04-26 18:31 44.41393 8.84753 9 ft 10 kts 100°
2026-04-26 18:31 44.41394 8.84852 9 ft 10 kts 87°
2026-04-26 18:31 44.41417 8.84933 9 ft 7 kts 50°
2026-04-26 18:32 44.41420 8.84938 9 ft 0 kts 49°